User: anonymous
Location: Fort Hays State University
(38.8712°N, 99.3432°W)
Time: 23:01:44
(UTC-05:00)
Language:

Cosmos 2279 Rocket - Orbit

View from above orbital plane
View from above orbital plane
View from above satellite
View from above satellite

Ground track
Ground track

The orbit data is extracted from the following two-line orbital elements,

1 23093U 94024B   14256.31086593  .00000040  00000-0  25151-4 0  9003
2 23093 082.9484 144.0356 0008976 314.0127 046.0290 13.77626342492653
Epoch (UTC): 13 September 2014 07:27:38
Eccentricity: 0.0008976
inclination: 82.9484°
perigee height: 966 km
apogee height: 979 km
right ascension of ascending node: 144.0356°
argument of perigee: 314.0127°
revolutions per day: 13.77626342
mean anomaly at epoch: 46.0290°
orbit number at epoch: 49265

The dashed part of the orbit path shows where the satellite is in the earth's shadow,  

DLR